N1202C KCLE-KBUF

Flight info

Callsign N1202C
Flight time 0h 59m
Altitude 27000
Route PFLYD1 DUUKR DKK
Aircraft SF50/L-SDGRWY/L

Departure

Time 2026-05-05 01:23
Airport Cleveland Hopkins International Airport (KCLE)

Arrival

Time 2026-05-05 02:23
Airport Buffalo Niagara International Airport (KBUF)
Time Latitude Longitude Altitude Speed Heading
2026-05-05 01:01 41.40432 -81.84276 775 ft 0 kts 359°
2026-05-05 01:11 41.40421 -81.84276 793 ft 4 kts 343°
2026-05-05 01:11 41.40406 -81.84258 793 ft 4 kts 275°
2026-05-05 01:11 41.40406 -81.84243 794 ft 1 kts 269°
2026-05-05 01:11 41.40406 -81.84242 794 ft 0 kts 269°
2026-05-05 01:17 41.40404 -81.84279 793 ft 0 kts 271°
2026-05-05 01:18 41.40404 -81.84280 793 ft 0 kts 271°
2026-05-05 01:18 41.40408 -81.84297 793 ft 7 kts 322°
2026-05-05 01:18 41.40429 -81.84301 794 ft 3 kts
2026-05-05 01:18 41.40519 -81.84306 793 ft 11 kts 330°
2026-05-05 01:19 41.40543 -81.84358 792 ft 0 kts 359°
2026-05-05 01:19 41.40574 -81.84366 792 ft 15 kts 348°
2026-05-05 01:19 41.40687 -81.84430 791 ft 19 kts
2026-05-05 01:19 41.40814 -81.84433 791 ft 17 kts 359°
2026-05-05 01:20 41.40911 -81.84392 792 ft 13 kts 47°
2026-05-05 01:20 41.40982 -81.84378 793 ft 9 kts 356°
2026-05-05 01:20 41.41068 -81.84378 794 ft 19 kts 359°
2026-05-05 01:20 41.41212 -81.84383 791 ft 22 kts
2026-05-05 01:21 41.41282 -81.84397 790 ft 2 kts 62°
2026-05-05 01:21 41.41323 -81.84310 791 ft 19 kts 51°
2026-05-05 01:21 41.41414 -81.84165 791 ft 18 kts 48°
2026-05-05 01:21 41.41453 -81.84145 792 ft 0 kts 349°
2026-05-05 01:22 41.41478 -81.84163 792 ft 10 kts 319°
2026-05-05 01:23 41.41461 -81.84324 789 ft 42 kts 230°
2026-05-05 01:23 41.41262 -81.84633 790 ft 88 kts 229°
2026-05-05 01:23 41.40695 -81.85743 1285 ft 116 kts 239°
2026-05-05 01:23 41.40230 -81.86848 1479 ft 157 kts 225°
2026-05-05 01:24 41.39259 -81.87739 1829 ft 182 kts 214°
2026-05-05 01:24 41.38497 -81.88345 2153 ft 187 kts 212°
2026-05-05 01:24 41.37541 -81.89595 2451 ft 210 kts 243°
2026-05-05 01:24 41.37292 -81.91613 2676 ft 230 kts 261°
2026-05-05 01:25 41.37174 -81.93582 2910 ft 193 kts 260°
2026-05-05 01:25 41.37268 -81.95245 3026 ft 189 kts 283°
2026-05-05 01:25 41.38132 -81.96640 3144 ft 198 kts 306°
2026-05-05 01:25 41.39140 -81.97875 3275 ft 195 kts 306°
2026-05-05 01:26 41.40132 -81.99096 3410 ft 192 kts 306°
2026-05-05 01:26 41.41107 -82.00300 3549 ft 187 kts 303°
2026-05-05 01:26 41.41547 -82.01666 3623 ft 149 kts 266°
2026-05-05 01:26 41.41819 -82.02948 3719 ft 150 kts 288°
2026-05-05 01:27 41.42506 -82.04059 3774 ft 160 kts 303°
2026-05-05 01:27 41.43352 -82.05050 3837 ft 162 kts 306°
2026-05-05 01:27 41.44232 -82.06076 3894 ft 179 kts 306°
2026-05-05 01:27 41.45310 -82.07077 3958 ft 206 kts 330°
2026-05-05 01:28 41.46800 -82.06945 4008 ft 234 kts 16°
2026-05-05 01:28 41.48157 -82.05709 4115 ft 238 kts 32°
2026-05-05 01:28 41.49484 -82.04395 4483 ft 238 kts 30°
2026-05-05 01:28 41.50823 -82.03074 4898 ft 241 kts 30°
2026-05-05 01:29 41.52168 -82.01729 5298 ft 240 kts 31°
2026-05-05 01:29 41.53515 -82.00391 5700 ft 241 kts 30°
2026-05-05 01:29 41.54849 -81.99073 6105 ft 241 kts 30°
2026-05-05 01:29 41.56208 -81.97739 6485 ft 241 kts 29°
2026-05-05 01:30 41.57573 -81.96411 6880 ft 242 kts 29°
2026-05-05 01:30 41.58928 -81.95098 7263 ft 243 kts 28°
2026-05-05 01:30 41.60303 -81.93771 7656 ft 244 kts 29°
2026-05-05 01:30 41.61691 -81.92435 8059 ft 245 kts 29°
2026-05-05 01:31 41.63067 -81.91111 8464 ft 246 kts 28°
2026-05-05 01:31 41.64287 -81.89460 8852 ft 258 kts 58°
2026-05-05 01:31 41.64583 -81.87104 9243 ft 259 kts 102°
2026-05-05 01:31 41.63787 -81.85081 9637 ft 239 kts 146°
2026-05-05 01:32 41.62427 -81.84100 10029 ft 217 kts 175°
2026-05-05 01:32 41.61041 -81.83128 10394 ft 242 kts 143°
2026-05-05 01:32 41.60366 -81.81038 10960 ft 253 kts 99°
2026-05-05 01:32 41.60379 -81.78628 11073 ft 266 kts 88°
2026-05-05 01:33 41.60494 -81.76159 11181 ft 265 kts 87°
2026-05-05 01:33 41.60849 -81.73749 11274 ft 265 kts 72°
2026-05-05 01:33 41.61389 -81.71418 11373 ft 265 kts 72°
2026-05-05 01:33 41.61893 -81.69036 11581 ft 260 kts 73°
2026-05-05 01:34 41.62369 -81.66749 12205 ft 253 kts 73°
2026-05-05 01:34 41.62836 -81.64513 12831 ft 246 kts 73°
2026-05-05 01:34 41.63328 -81.62351 13250 ft 250 kts 67°
2026-05-05 01:34 41.64009 -81.60109 13263 ft 266 kts 65°
2026-05-05 01:35 41.64716 -81.57810 13395 ft 265 kts 65°
2026-05-05 01:35 41.65022 -81.55366 13534 ft 272 kts 97°
2026-05-05 01:35 41.64963 -81.52908 13835 ft 270 kts 79°
2026-05-05 01:35 41.65687 -81.50584 13997 ft 274 kts 59°
2026-05-05 01:36 41.66557 -81.48297 14010 ft 272 kts 60°
2026-05-05 01:36 41.67472 -81.46137 14003 ft 267 kts 50°
2026-05-05 01:36 41.68693 -81.44273 14002 ft 265 kts 43°
2026-05-05 01:36 41.69808 -81.42291 13999 ft 269 kts 55°
2026-05-05 01:37 41.70681 -81.40061 14002 ft 271 kts 62°
2026-05-05 01:37 41.71537 -81.37821 13982 ft 280 kts 58°
2026-05-05 01:37 41.72516 -81.35546 13998 ft 282 kts 57°
2026-05-05 01:37 41.73510 -81.33255 14001 ft 284 kts 57°
2026-05-05 01:38 41.74469 -81.30969 13997 ft 284 kts 60°
2026-05-05 01:38 41.75683 -81.28963 13880 ft 268 kts 16°
2026-05-05 01:38 41.76863 -81.27341 14802 ft 226 kts 62°
2026-05-05 01:38 41.77439 -81.25318 14812 ft 247 kts 67°
2026-05-05 01:39 41.78027 -81.23127 14835 ft 258 kts 71°
2026-05-05 01:39 41.78665 -81.20774 14507 ft 279 kts 63°
2026-05-05 01:39 41.79640 -81.18429 14076 ft 294 kts 54°
2026-05-05 01:39 41.80724 -81.16132 14010 ft 292 kts 56°
2026-05-05 01:40 41.81720 -81.13767 14009 ft 290 kts 59°
2026-05-05 01:40 41.82673 -81.11383 14007 ft 288 kts 58°
2026-05-05 01:40 41.83641 -81.09067 14006 ft 286 kts 57°
2026-05-05 01:40 41.84625 -81.06749 14008 ft 285 kts 57°
2026-05-05 01:41 41.85596 -81.04421 14018 ft 286 kts 58°
2026-05-05 01:41 41.86571 -81.02080 14018 ft 286 kts 58°
2026-05-05 01:41 41.87532 -80.99776 14018 ft 286 kts 58°
2026-05-05 01:41 41.88503 -80.97446 14017 ft 286 kts 58°
2026-05-05 01:42 41.89476 -80.95104 14009 ft 286 kts 58°
2026-05-05 01:42 41.90443 -80.92778 13819 ft 292 kts 58°
2026-05-05 01:42 41.91448 -80.90367 13586 ft 298 kts 58°
2026-05-05 01:42 41.92469 -80.87902 13322 ft 302 kts 58°
2026-05-05 01:43 41.93489 -80.85440 13061 ft 305 kts 58°
2026-05-05 01:43 41.94527 -80.82938 12801 ft 304 kts 58°
2026-05-05 01:43 41.95520 -80.80528 12539 ft 284 kts 58°
2026-05-05 01:43 41.96454 -80.78274 12273 ft 275 kts 58°
2026-05-05 01:44 41.97392 -80.76020 12009 ft 276 kts 58°
2026-05-05 01:44 41.98325 -80.73759 11755 ft 276 kts 58°
2026-05-05 01:44 41.99252 -80.71514 11503 ft 276 kts 58°
2026-05-05 01:44 42.00223 -80.69320 11252 ft 273 kts 53°
2026-05-05 01:45 42.01307 -80.67223 11017 ft 271 kts 51°
2026-05-05 01:45 42.02392 -80.65171 11005 ft 266 kts 51°
2026-05-05 01:45 42.03469 -80.63148 11012 ft 271 kts 51°
2026-05-05 01:45 42.04571 -80.61081 11005 ft 271 kts 51°
2026-05-05 01:46 42.05663 -80.59039 11005 ft 270 kts 51°
2026-05-05 01:46 42.06764 -80.56973 11007 ft 270 kts 51°
2026-05-05 01:46 42.07851 -80.54936 11000 ft 270 kts 51°
2026-05-05 01:46 42.08946 -80.52880 10994 ft 270 kts 51°
2026-05-05 01:47 42.10038 -80.50826 10998 ft 269 kts 51°
2026-05-05 01:47 42.11134 -80.48767 10997 ft 269 kts 51°
2026-05-05 01:47 42.12230 -80.46709 10997 ft 269 kts 51°
2026-05-05 01:47 42.13310 -80.44683 11000 ft 268 kts 51°
2026-05-05 01:48 42.14403 -80.42633 11002 ft 269 kts 51°
2026-05-05 01:48 42.15498 -80.40578 10996 ft 270 kts 51°
2026-05-05 01:48 42.16600 -80.38516 11000 ft 270 kts 51°
2026-05-05 01:48 42.17689 -80.36483 10998 ft 270 kts 51°
2026-05-05 01:49 42.18787 -80.34429 11004 ft 270 kts 51°
2026-05-05 01:49 42.19894 -80.32359 11000 ft 271 kts 50°
2026-05-05 01:49 42.20986 -80.30314 11007 ft 271 kts 51°
2026-05-05 01:49 42.22086 -80.28254 11008 ft 267 kts 51°
2026-05-05 01:50 42.23173 -80.26220 11005 ft 267 kts 50°
2026-05-05 01:50 42.24259 -80.24162 11004 ft 269 kts 53°
2026-05-05 01:50 42.25174 -80.21978 11004 ft 271 kts 60°
2026-05-05 01:50 42.25888 -80.19615 11001 ft 273 kts 71°
2026-05-05 01:51 42.26414 -80.17144 11002 ft 273 kts 73°
2026-05-05 01:51 42.26999 -80.14696 11001 ft 274 kts 69°
2026-05-05 01:51 42.27653 -80.12283 10998 ft 273 kts 69°
2026-05-05 01:51 42.28281 -80.09887 10997 ft 273 kts 70°
2026-05-05 01:52 42.28893 -80.07459 10994 ft 273 kts 70°
2026-05-05 01:52 42.29510 -80.05037 10994 ft 273 kts 70°
2026-05-05 01:52 42.30133 -80.02607 10994 ft 273 kts 70°
2026-05-05 01:52 42.30754 -80.00171 10997 ft 273 kts 70°
2026-05-05 01:53 42.31373 -79.97746 10998 ft 273 kts 70°
2026-05-05 01:53 42.31988 -79.95331 10998 ft 273 kts 70°
2026-05-05 01:53 42.32599 -79.92931 10998 ft 272 kts 70°
2026-05-05 01:53 42.33215 -79.90504 10998 ft 273 kts 70°
2026-05-05 01:54 42.33834 -79.88076 10991 ft 273 kts 70°
2026-05-05 01:54 42.34452 -79.85641 10996 ft 273 kts 70°
2026-05-05 01:54 42.35063 -79.83229 10997 ft 273 kts 70°
2026-05-05 01:54 42.35683 -79.80788 10996 ft 273 kts 70°
2026-05-05 01:55 42.36296 -79.78362 10997 ft 272 kts 70°
2026-05-05 01:55 42.36910 -79.75937 10997 ft 272 kts 70°
2026-05-05 01:55 42.37517 -79.73529 10997 ft 273 kts 70°
2026-05-05 01:55 42.38131 -79.71090 11000 ft 273 kts 70°
2026-05-05 01:56 42.38739 -79.68681 10996 ft 273 kts 70°
2026-05-05 01:56 42.39351 -79.66243 10996 ft 273 kts 70°
2026-05-05 01:56 42.39963 -79.63812 10991 ft 272 kts 70°
2026-05-05 01:56 42.40574 -79.61379 10991 ft 272 kts 70°
2026-05-05 01:57 42.41177 -79.58971 10991 ft 272 kts 70°
2026-05-05 01:57 42.41790 -79.56536 10994 ft 272 kts 70°
2026-05-05 01:57 42.42398 -79.54103 10994 ft 272 kts 70°
2026-05-05 01:57 42.42998 -79.51705 10994 ft 272 kts 70°
2026-05-05 01:58 42.43607 -79.49275 10993 ft 272 kts 70°
2026-05-05 01:58 42.44211 -79.46850 10992 ft 272 kts 70°
2026-05-05 01:58 42.44818 -79.44419 10992 ft 272 kts 70°
2026-05-05 01:58 42.45422 -79.41997 10996 ft 272 kts 73°
2026-05-05 01:59 42.45995 -79.39547 10989 ft 272 kts 74°
2026-05-05 01:59 42.46567 -79.37119 10990 ft 273 kts 72°
2026-05-05 01:59 42.47187 -79.34664 10990 ft 274 kts 72°
2026-05-05 01:59 42.47795 -79.32249 10988 ft 274 kts 72°
2026-05-05 02:00 42.48399 -79.29797 10990 ft 273 kts 73°
2026-05-05 02:00 42.48997 -79.27370 10988 ft 274 kts 72°
2026-05-05 02:00 42.49610 -79.24912 10988 ft 275 kts 72°
2026-05-05 02:00 42.50220 -79.22434 10827 ft 278 kts 73°
2026-05-05 02:01 42.50820 -79.20004 10606 ft 272 kts 73°
2026-05-05 02:01 42.51422 -79.17578 10370 ft 269 kts 73°
2026-05-05 02:01 42.52015 -79.15169 10121 ft 268 kts 73°
2026-05-05 02:01 42.52596 -79.12806 9875 ft 267 kts 73°
2026-05-05 02:02 42.53203 -79.10416 9632 ft 266 kts 72°
2026-05-05 02:02 42.54012 -79.08168 9313 ft 267 kts 56°
2026-05-05 02:02 42.55099 -79.06173 9047 ft 264 kts 52°
2026-05-05 02:02 42.56209 -79.04215 9011 ft 262 kts 52°
2026-05-05 02:03 42.57335 -79.02233 9010 ft 266 kts 52°
2026-05-05 02:03 42.58474 -79.00260 9004 ft 265 kts 50°
2026-05-05 02:03 42.59620 -78.98345 9015 ft 264 kts 50°
2026-05-05 02:03 42.60784 -78.96410 9017 ft 263 kts 50°
2026-05-05 02:04 42.61950 -78.94479 9019 ft 265 kts 47°
2026-05-05 02:04 42.63111 -78.92568 9019 ft 266 kts 48°
2026-05-05 02:04 42.64261 -78.90590 9019 ft 265 kts 49°
2026-05-05 02:04 42.65395 -78.88622 9012 ft 264 kts 50°
2026-05-05 02:05 42.66516 -78.86682 9010 ft 263 kts 49°
2026-05-05 02:05 42.67649 -78.84714 9009 ft 263 kts 50°
2026-05-05 02:05 42.68786 -78.82742 9029 ft 264 kts 49°
2026-05-05 02:05 42.69916 -78.80763 9032 ft 265 kts 49°
2026-05-05 02:06 42.71037 -78.78797 9035 ft 265 kts 49°
2026-05-05 02:06 42.72170 -78.76817 9024 ft 265 kts 49°
2026-05-05 02:06 42.73293 -78.74854 9025 ft 265 kts 49°
2026-05-05 02:06 42.74437 -78.72856 9025 ft 265 kts 49°
2026-05-05 02:07 42.75561 -78.70894 9025 ft 265 kts 49°
2026-05-05 02:07 42.76697 -78.68907 9031 ft 265 kts 49°
2026-05-05 02:07 42.77819 -78.66943 9029 ft 266 kts 49°
2026-05-05 02:07 42.78958 -78.64933 9018 ft 268 kts 49°
2026-05-05 02:08 42.80099 -78.62907 9020 ft 268 kts 49°
2026-05-05 02:08 42.81243 -78.60877 8862 ft 271 kts 49°
2026-05-05 02:08 42.82372 -78.58886 8612 ft 266 kts 49°
2026-05-05 02:08 42.83504 -78.56899 8354 ft 262 kts 50°
2026-05-05 02:09 42.84612 -78.54961 8095 ft 254 kts 49°
2026-05-05 02:09 42.85684 -78.53106 7803 ft 251 kts 49°
2026-05-05 02:09 42.86771 -78.51215 7428 ft 251 kts 49°
2026-05-05 02:09 42.87838 -78.49366 7060 ft 249 kts 50°
2026-05-05 02:10 42.88915 -78.47526 6691 ft 247 kts 49°
2026-05-05 02:10 42.89632 -78.46317 6433 ft 246 kts 49°
2026-05-05 02:10 42.91069 -78.43912 5950 ft 246 kts 49°
2026-05-05 02:10 42.92162 -78.42112 5574 ft 246 kts 49°
2026-05-05 02:11 42.92906 -78.40897 5318 ft 245 kts 49°
2026-05-05 02:11 42.93987 -78.39139 4946 ft 244 kts 49°
2026-05-05 02:11 42.95076 -78.37367 4576 ft 241 kts 47°
2026-05-05 02:11 42.96467 -78.36209 4164 ft 231 kts
2026-05-05 02:12 42.97906 -78.36512 4002 ft 195 kts 317°
2026-05-05 02:12 42.99662 -78.39166 4017 ft 184 kts 299°
2026-05-05 02:12 43.00485 -78.40484 4007 ft 182 kts 299°
2026-05-05 02:13 43.01305 -78.41787 4008 ft 183 kts 299°
2026-05-05 02:13 43.02134 -78.43120 4008 ft 183 kts 298°
2026-05-05 02:13 43.02970 -78.44457 4004 ft 184 kts 299°
2026-05-05 02:13 43.03816 -78.45772 4007 ft 184 kts 300°
2026-05-05 02:14 43.04669 -78.47065 4005 ft 185 kts 300°
2026-05-05 02:14 43.05533 -78.48387 4007 ft 185 kts 301°
2026-05-05 02:14 43.06304 -78.49754 4004 ft 177 kts 290°
2026-05-05 02:14 43.06768 -78.51251 4001 ft 169 kts 277°
2026-05-05 02:15 43.06958 -78.52813 4004 ft 163 kts 265°
2026-05-05 02:15 43.06891 -78.54286 4013 ft 143 kts 254°
2026-05-05 02:15 43.06659 -78.55450 3995 ft 118 kts 245°
2026-05-05 02:15 43.06308 -78.56470 3995 ft 115 kts 238°
2026-05-05 02:16 43.05889 -78.57300 3986 ft 102 kts 232°
2026-05-05 02:16 43.05425 -78.57982 3994 ft 95 kts 226°
2026-05-05 02:16 43.04960 -78.58604 3994 ft 92 kts 227°
2026-05-05 02:16 43.04499 -78.59205 3998 ft 92 kts 226°
2026-05-05 02:17 43.04033 -78.59819 4001 ft 92 kts 225°
2026-05-05 02:17 43.03577 -78.60422 4000 ft 91 kts 226°
2026-05-05 02:17 43.03116 -78.61025 4000 ft 91 kts 225°
2026-05-05 02:17 43.02706 -78.61563 3606 ft 79 kts 226°
2026-05-05 02:18 43.02351 -78.62033 3254 ft 62 kts 225°
2026-05-05 02:18 43.02078 -78.62390 2970 ft 50 kts 224°
2026-05-05 02:18 43.01811 -78.62748 2541 ft 53 kts 223°
2026-05-05 02:18 43.01570 -78.63054 2437 ft 55 kts 224°
2026-05-05 02:19 43.01253 -78.63457 2480 ft 65 kts 221°
2026-05-05 02:19 43.00930 -78.63902 2412 ft 67 kts 224°
2026-05-05 02:19 43.00595 -78.64327 2317 ft 65 kts 222°
2026-05-05 02:19 43.00265 -78.64793 2235 ft 73 kts 221°
2026-05-05 02:20 42.99897 -78.65294 2137 ft 76 kts 225°
2026-05-05 02:20 42.99511 -78.65808 2033 ft 78 kts 220°
2026-05-05 02:20 42.99116 -78.66322 1922 ft 81 kts 220°
2026-05-05 02:20 42.98684 -78.66864 1810 ft 87 kts 222°
2026-05-05 02:21 42.98226 -78.67479 1691 ft 98 kts 220°
2026-05-05 02:21 42.97724 -78.68105 1562 ft 95 kts 220°
2026-05-05 02:21 42.97259 -78.68709 1443 ft 93 kts 220°
2026-05-05 02:21 42.96797 -78.69335 1314 ft 92 kts 223°
2026-05-05 02:22 42.96331 -78.69963 1198 ft 100 kts 222°
2026-05-05 02:22 42.95852 -78.70617 1075 ft 99 kts 222°
2026-05-05 02:22 42.95365 -78.71245 937 ft 94 kts 219°
2026-05-05 02:22 42.94896 -78.71857 817 ft 89 kts 219°
2026-05-05 02:23 42.94500 -78.72370 727 ft 71 kts 219°
2026-05-05 02:23 42.94187 -78.72755 720 ft 47 kts 219°
2026-05-05 02:23 42.94047 -78.72958 719 ft 21 kts 222°
2026-05-05 02:23 42.93992 -78.73083 719 ft 13 kts 307°
2026-05-05 02:24 42.94040 -78.73172 718 ft 10 kts 310°
2026-05-05 02:24 42.94106 -78.73291 717 ft 24 kts 308°
2026-05-05 02:24 42.94201 -78.73467 718 ft 22 kts 308°
2026-05-05 02:24 42.94310 -78.73495 715 ft 18 kts
2026-05-05 02:25 42.94457 -78.73495 715 ft 23 kts
2026-05-05 02:25 42.94616 -78.73481 715 ft 15 kts 75°
2026-05-05 02:25 42.94648 -78.73438 715 ft 11 kts 316°
2026-05-05 02:25 42.94679 -78.73466 715 ft 0 kts 15°
2026-05-05 02:26 42.94687 -78.73458 716 ft 2 kts 32°
2026-05-05 02:26 42.94723 -78.73450 715 ft 0 kts 21°